Weather History for Waseca, MN

Change the Weather History Date:

Friday, September 6, 2013

  Actual Average Record
Temperature  
Mean Temperature 76 °F -  
Max Temperature 87 °F 76 °F 100 °F (1922)
Min Temperature 66 °F 52 °F 34 °F (1956)
Cooling Degree Days 12    
Growing Degree Days 26 (Base 50)    
Moisture  
Dew Point 65 °F    
Average Humidity 69    
Maximum Humidity 94    
Minimum Humidity 43    
Precipitation  
Precipitation 0.00 in - - ()
Sea Level Pressure  
Sea Level Pressure 30.04 in    
Wind  
Wind Speed 8 mph (SSE)    
Max Wind Speed 18 mph    
Max Gust Speed 26 mph    
Visibility 10 miles    
Events Thunderstorm    
Averages and records for this station are not official NWS values.
T = Trace of Precipitation, MM = Missing Value Source: NWS Daily Summary

Daily Weather History Graph

Daily Weather History Graph

Search for Another Location

Airport:

Trip Planner

Search our weather history database for the weather conditions in past years. The results will help you decide how hot, cold, wet, or windy it might be!

Date:

Astronomy

Sep. 06, 2013 Rise Set
Actual Time 6:43 AM CDT 7:40 PM CDT
Civil Twilight 6:13 AM CDT 8:10 PM CDT
Nautical Twilight 5:38 AM CDT 8:45 PM CDT
Astronomical Twilight 5:01 AM CDT 9:21 PM CDT
Moon 8:00 AM CDT (9/6) 7:59 PM CDT (9/6)
Length of Visible Light 13h 56m
Length of Day
12h 57m
New Moon, 2% of the Moon is Illuminated
Sep 6
New Moon
Sep 12
First Quarter
Sep 19
Full
Sep 26
Last Quarter
Oct 4
New

Hourly Weather History & Observations

Time (CDT) Temp. Heat Index Dew Point Humidity Pressure Visibility Wind Dir Wind Speed Gust Speed Precip Events Conditions
12:14 AM 73.4 °F - 69.8 °F 88% 30.15 in 10.0 mi South 3.5 mph - N/A   Clear
12:33 AM 71.6 °F - 68.0 °F 88% 30.15 in 7.0 mi SSE 3.5 mph - N/A   Clear
12:54 AM 71.6 °F - 68.0 °F 88% 30.14 in 7.0 mi SSE 3.5 mph - N/A   Clear
1:14 AM 71.6 °F - 68.0 °F 88% 30.14 in 10.0 mi SSE 6.9 mph - N/A   Clear
1:33 AM 71.6 °F - 68.0 °F 88% 30.14 in 10.0 mi SE 6.9 mph - N/A   Clear
1:53 AM 71.6 °F - 68.0 °F 88% 30.14 in 10.0 mi SE 5.8 mph - N/A   Clear
2:14 AM 71.6 °F - 68.0 °F 88% 30.14 in 10.0 mi SSE 6.9 mph - N/A   Clear
2:33 AM 71.6 °F - 68.0 °F 88% 30.14 in 10.0 mi SSE 5.8 mph - N/A   Clear
2:53 AM 71.6 °F - 68.0 °F 88% 30.13 in 10.0 mi SSE 8.1 mph - N/A   Clear
3:13 AM 69.8 °F - 68.0 °F 94% 30.13 in 10.0 mi South 5.8 mph - N/A   Clear
3:34 AM 69.8 °F - 66.2 °F 88% 30.13 in 10.0 mi SSE 4.6 mph - N/A   Clear
3:53 AM 68.0 °F - 64.4 °F 88% 30.13 in 10.0 mi SSE 4.6 mph - N/A Thunderstorm Clear
4:14 AM 68.0 °F - 64.4 °F 88% 30.13 in 10.0 mi SSE 4.6 mph - N/A   Clear
4:34 AM 68.0 °F - 66.2 °F 94% 30.13 in 10.0 mi Calm Calm - N/A   Mostly Cloudy
4:53 AM 68.0 °F - 66.2 °F 94% 30.13 in 10.0 mi SE 3.5 mph - N/A   Mostly Cloudy
5:14 AM 68.0 °F - 66.2 °F 94% 30.13 in 10.0 mi SE 4.6 mph - N/A Thunderstorm Scattered Clouds
5:34 AM 68.0 °F - 66.2 °F 94% 30.13 in 10.0 mi SE 5.8 mph - N/A   Mostly Cloudy
5:54 AM 68.0 °F - 66.2 °F 94% 30.14 in 10.0 mi East 3.5 mph - N/A   Overcast
6:13 AM 68.0 °F - 66.2 °F 94% 30.14 in 10.0 mi East 8.1 mph - N/A   Overcast
6:34 AM 68.0 °F - 64.4 °F 88% 30.13 in 10.0 mi ESE 8.1 mph - N/A Thunderstorm Overcast
6:53 AM 66.2 °F - 64.4 °F 94% 30.13 in 7.0 mi SE 9.2 mph - N/A   Scattered Clouds
7:14 AM 66.2 °F - 64.4 °F 94% 30.12 in 7.0 mi SE 8.1 mph - N/A   Clear
7:34 AM 66.2 °F - 64.4 °F 94% 30.12 in 7.0 mi SE 8.1 mph - N/A   Clear
7:54 AM 66.2 °F - 64.4 °F 94% 30.12 in 7.0 mi SSE 5.8 mph - N/A Thunderstorm Clear
8:13 AM 68.0 °F - 64.4 °F 88% 30.11 in 7.0 mi SSE 4.6 mph - N/A   Clear
8:34 AM 68.0 °F - 66.2 °F 94% 30.11 in 10.0 mi SSE 9.2 mph - N/A   Clear
8:53 AM 71.6 °F - 68.0 °F 88% 30.11 in 10.0 mi SE 6.9 mph - N/A   Clear
9:14 AM 73.4 °F - 69.8 °F 88% 30.10 in 10.0 mi SSE 8.1 mph - N/A   Clear
9:34 AM 73.4 °F - 68.0 °F 83% 30.10 in 10.0 mi South 9.2 mph - N/A   Clear
9:53 AM 77.0 °F - 68.0 °F 74% 30.09 in 10.0 mi South 9.2 mph - N/A   Clear
10:14 AM 78.8 °F - 68.0 °F 69% 30.09 in 10.0 mi South 12.7 mph 18.4 mph N/A   Clear
10:34 AM 78.8 °F - 66.2 °F 65% 30.08 in 10.0 mi South 9.2 mph 18.4 mph N/A   Clear
10:54 AM 80.6 °F 82.7 °F 66.2 °F 61% 30.07 in 10.0 mi South 15.0 mph - N/A   Clear
11:13 AM 80.6 °F 82.3 °F 64.4 °F 58% 30.07 in 10.0 mi South 15.0 mph 19.6 mph N/A   Clear
11:34 AM 82.4 °F 83.9 °F 64.4 °F 54% 30.07 in 10.0 mi South 11.5 mph 17.3 mph N/A   Clear
11:54 AM 82.4 °F 83.4 °F 62.6 °F 51% 30.06 in 10.0 mi SSW 15.0 mph 23.0 mph N/A   Clear
12:14 PM 82.4 °F 83.9 °F 64.4 °F 54% 30.05 in 10.0 mi South 13.8 mph 20.7 mph N/A   Clear
12:34 PM 84.2 °F 85.6 °F 64.4 °F 51% 30.04 in 10.0 mi South 18.4 mph 21.9 mph N/A   Clear
12:54 PM 84.2 °F 85.6 °F 64.4 °F 51% 30.03 in 10.0 mi South 17.3 mph - N/A   Clear
1:13 PM 86.0 °F 87.3 °F 64.4 °F 48% 30.03 in 10.0 mi South 13.8 mph 19.6 mph N/A   Clear
1:34 PM 86.0 °F 87.3 °F 64.4 °F 48% 30.01 in 7.0 mi South 11.5 mph 20.7 mph N/A   Clear
1:53 PM 86.0 °F 87.3 °F 64.4 °F 48% 30.01 in 10.0 mi South 13.8 mph 20.7 mph N/A   Clear
2:14 PM 86.0 °F 87.3 °F 64.4 °F 48% 30.00 in 10.0 mi South 16.1 mph 20.7 mph N/A   Clear
2:33 PM 86.0 °F 87.3 °F 64.4 °F 48% 30.00 in 10.0 mi South 16.1 mph 23.0 mph N/A   Clear
2:54 PM 86.0 °F 87.3 °F 64.4 °F 48% 29.98 in 10.0 mi South 16.1 mph 23.0 mph N/A   Clear
3:14 PM 87.8 °F 88.5 °F 62.6 °F 43% 29.98 in 10.0 mi South 16.1 mph 26.5 mph N/A   Clear
3:34 PM 87.8 °F 88.5 °F 62.6 °F 43% 29.98 in 10.0 mi South 16.1 mph 19.6 mph N/A   Clear
3:54 PM 86.0 °F 87.3 °F 64.4 °F 48% 29.97 in 10.0 mi SSW 15.0 mph - N/A   Clear
4:14 PM 87.8 °F 89.4 °F 64.4 °F 46% 29.96 in 10.0 mi South 17.3 mph 21.9 mph N/A   Clear
4:33 PM 87.8 °F 88.5 °F 62.6 °F 43% 29.96 in 10.0 mi South 13.8 mph 20.7 mph N/A   Clear
4:54 PM 87.8 °F 88.5 °F 62.6 °F 43% 29.95 in 10.0 mi South 11.5 mph 19.6 mph N/A   Scattered Clouds
5:14 PM 86.0 °F 86.6 °F 62.6 °F 45% 29.95 in 10.0 mi South 15.0 mph 20.7 mph N/A   Scattered Clouds
5:34 PM 86.0 °F 87.3 °F 64.4 °F 48% 29.95 in 10.0 mi South 11.5 mph - N/A   Scattered Clouds
5:54 PM 86.0 °F 87.3 °F 64.4 °F 48% 29.94 in 10.0 mi South 15.0 mph - N/A   Scattered Clouds
6:14 PM 86.0 °F 86.6 °F 62.6 °F 45% 29.94 in 10.0 mi South 9.2 mph - N/A   Clear
6:34 PM 82.4 °F 83.9 °F 64.4 °F 54% 29.93 in 10.0 mi South 11.5 mph - N/A   Clear
6:54 PM 82.4 °F 83.9 °F 64.4 °F 54% 29.93 in 10.0 mi South 10.4 mph - N/A   Scattered Clouds
7:13 PM 82.4 °F 83.4 °F 62.6 °F 51% 29.92 in 10.0 mi South 8.1 mph - N/A   Scattered Clouds
7:34 PM 80.6 °F 82.3 °F 64.4 °F 58% 29.93 in 10.0 mi SSE 5.8 mph - N/A   Clear
7:53 PM 78.8 °F - 64.4 °F 61% 29.92 in 10.0 mi SSE 5.8 mph - N/A   Clear
8:14 PM 78.8 °F - 66.2 °F 65% 29.93 in 10.0 mi SSE 5.8 mph - N/A   Clear
8:34 PM 78.8 °F - 68.0 °F 69% 29.93 in 10.0 mi SSE 5.8 mph - N/A   Clear
8:53 PM 78.8 °F - 66.2 °F 65% 29.93 in 10.0 mi SSE 6.9 mph - N/A   Clear
9:14 PM 77.0 °F - 62.6 °F 61% 29.93 in 10.0 mi SSE 8.1 mph - N/A   Clear
9:34 PM 77.0 °F - 62.6 °F 61% 29.93 in 10.0 mi SSE 8.1 mph - N/A   Clear
9:54 PM 77.0 °F - 62.6 °F 61% 29.93 in 10.0 mi South 8.1 mph - N/A   Clear
10:14 PM 77.0 °F - 62.6 °F 61% 29.93 in 10.0 mi South 8.1 mph - N/A   Clear
10:34 PM 77.0 °F - 62.6 °F 61% 29.93 in 10.0 mi South 6.9 mph - N/A   Clear
10:54 PM 75.2 °F - 62.6 °F 65% 29.93 in 10.0 mi South 6.9 mph - N/A   Clear
11:14 PM 73.4 °F - 62.6 °F 69% 29.93 in 10.0 mi South 5.8 mph - N/A   Clear
11:33 PM 73.4 °F - 62.6 °F 69% 29.93 in 10.0 mi South 4.6 mph - N/A   Clear
11:54 PM 73.4 °F - 62.6 °F 69% 29.93 in 10.0 mi South 4.6 mph - N/A   Clear